This demonstration page uses our WeatherBlox Daily Observations layout. Learn more.

38.89511, -77.03637

Hourly Observations for July 20, 2019

Temp ( °F °C ) Dew Point ( °F °C ) Humidity (%) Winds ( mph kmh ) Pressure ( in mb ) Visibility ( mi km ) Precip ( " mm )
12:52 am 00:52 Partly Cloudy 85 29.4 77 25 77 77 S 7 11 29.88 1012 10 16.09344 0 0
1:52 am 01:52 Partly Cloudy 83 28.3 74 23.3 74 74 SSW 6 9 29.88 1012 10 16.09344 0 0
2:52 am 02:52 Partly Cloudy 83 28.3 73 22.8 72 72 SSW 5 7 29.88 1012 10 16.09344 0 0
3:52 am 03:52 Partly Cloudy 84 28.9 73 22.8 70 70 SW 5 7 29.91 1013 10 16.09344 0 0
4:52 am 04:52 Partly Cloudy 82 27.8 74 23.3 77 77 SSW 3 6 29.91 1013 10 16.09344 0 0
5:52 am 05:52 Partly Cloudy 81 27.2 73 22.8 77 77 WSW 3 6 29.94 1014 10 16.09344 0 0
6:52 am 06:52 Partly Cloudy 82 27.8 73 22.8 74 74 SW 6 9 29.91 1013 10 16.09344 0 0
7:52 am 07:52 Partly Cloudy 85 29.4 74 23.3 70 70 S 6 9 29.91 1013 10 16.09344 0 0
8:52 am 08:52 Partly Cloudy 89 31.7 74 23.3 61 61 WSW 5 7 29.91 1013 10 16.09344 0 0
9:52 am 09:52 Partly Cloudy 91 32.8 74 23.3 57 57 NNW 10 17 29.94 1014 10 16.09344 0 0
10:52 am 10:52 Mostly Cloudy 93 33.9 76 24.4 58 58 NNW 12 19 29.94 1014 10 16.09344 0 0
11:52 am 11:52 Mostly Cloudy 94 34.4 75 23.9 54 54 NW 9 15 29.91 1013 10 16.09344 0 0
12:52 pm 12:52 Mostly Cloudy 95 35 76 24.4 54 54 VRB 6 9 29.88 1012 10 16.09344 0 0
1:52 pm 13:52 Mostly Cloudy 93 33.9 74 23.3 54 54 S 7 11 29.85 1011 10 16.09344 0 0
2:52 pm 14:52 Partly Cloudy 95 35 77 25 56 56 S 13 20 29.85 1011 10 16.09344 0 0
3:52 pm 15:52 Partly Cloudy 94 34.4 74 23.3 52 52 S 8 13 29.83 1010 10 16.09344 0 0
4:52 pm 16:52 Partly Cloudy 96 35.6 74 23.3 49 49 SW 8 13 29.83 1010 10 16.09344 0 0
5:52 pm 17:52 Partly Cloudy 96 35.6 72 22.2 46 46 SW 15 24 29.83 1010 10 16.09344 0 0
6:52 pm 18:52 Partly Cloudy 96 35.6 71 21.7 44 44 WSW 14 22 29.85 1011 10 16.09344 0 0
7:52 pm 19:52 Partly Cloudy 95 35 71 21.7 46 46 WSW 9 15 29.83 1010 10 16.09344 0 0
8:52 pm 20:52 Partly Cloudy 93 33.9 71 21.7 49 49 WSW 6 9 29.83 1010 10 16.09344 0 0
9:52 pm 21:52 Partly Cloudy 91 32.8 71 21.7 52 52 NNW 16 26 29.85 1011 10 16.09344 0 0
9:59 pm 21:59 Partly Cloudy 90 32.2 67 19.4 47 47 NW 10 17 29.88 1012 10 16.09344 0 0
10:52 pm 22:52 Partly Cloudy 88 31.1 69 20.6 54 54 W 7 11 29.85 1011 10 16.09344 0 0
11:52 pm 23:52 Cloudy 88 31.1 67 19.4 50 50 WNW 5 7 29.85 1011 10 16.09344 0 0

Powered by AerisWeather